Location: Unspecified
(52.4292°N, 19.3359°E)
Time: 22:02:39
(UTC+02:00)

Tiros 1 - Pass Details

Date: 20 May 2024
Orbit: 624 x 657 km, 48.4° (Epoch: 16 June)

Event Time Altitude Azimuth Distance (km) Brightness Sun altitude
Rises 13:05:03 0° 210° (SSW) 2,967 11.0 57.3°
Reaches altitude 10° 13:07:52 10° 194° (SSW) 2,061 10.5 57.2°
Maximum altitude 13:11:21 20° 146° (SSE) 1,490 9.7 57.1°
Drops below altitude 10° 13:14:51 10° 99° (E) 2,069 9.8 57.0°
Sets 13:17:41 0° 83° (E) 2,982 10.4 56.9°
